This is the latest recevied weather packets stored in our database for station/object W9GWP. If no packets are shown the sender has not sent any weather packets the latest 10 day(s).
| Time | Temp. | Humidity | Pressure | Rain* | Wind** | Luminosity | Snow |
|---|---|---|---|---|---|---|---|
| 1777754779 | 12.22° C | 41% | 1045.7 hPa | 0 mm | - | 235 W/m² | - |
| 1777753878 | 12.22° C | 41% | 1046 hPa | 0 mm | - | 236 W/m² | - |
| 1777752973 | 12.22° C | 43% | 1045.9 hPa | 0 mm | - | 122 W/m² | - |
| 1777752069 | 12.22° C | 40% | 1046.2 hPa | 0 mm | - | 760 W/m² | - |
| 1777751166 | 11.67° C | 43% | 1046.4 hPa | 0 mm | - | 365 W/m² | - |
| 1777750261 | 11.67° C | 44% | 1046.6 hPa | 0 mm | - | 703 W/m² | - |
| 1777749357 | 11.67° C | 43% | 1047 hPa | 0 mm | - | 717 W/m² | - |
| 1777748456 | 11.11° C | 42% | 1047 hPa | 0 mm | - | 286 W/m² | - |
| 1777747555 | 11.11° C | 43% | 1047.4 hPa | 0 mm | - | 275 W/m² | - |
| 1777746650 | 11.67° C | 45% | 1047.6 hPa | 0 mm | - | 275 W/m² | - |
| 1777745745 | 10.56° C | 44% | 1047.6 hPa | 0 mm | - | 161 W/m² | - |
| 1777744843 | 11.11° C | 47% | 1047.6 hPa | 0 mm | - | 252 W/m² | - |
| 1777743943 | 10° C | 49% | 1047.7 hPa | 0 mm | - | 193 W/m² | - |
| 1777743040 | 10.56° C | 45% | 1048.2 hPa | 0 mm | - | 833 W/m² | - |
| 1777742141 | 11.11° C | 46% | 1048.1 hPa | 0 mm | - | 755 W/m² | - |
| 1777741237 | 10° C | 49% | 1048.3 hPa | 0 mm | - | 259 W/m² | - |
| 1777740336 | 10.56° C | 48% | 1048.6 hPa | 0 mm | - | 834 W/m² | - |
| 1777739437 | 10° C | 50% | 1048.4 hPa | 0 mm | - | 733 W/m² | - |
| 1777738532 | 10.56° C | 46% | 1048.6 hPa | 0 mm | - | 717 W/m² | - |
| 1777737632 | 8.89° C | 50% | 1048.7 hPa | 0 mm | - | 735 W/m² | - |
| 1777736728 | 10° C | 50% | 1049 hPa | 0 mm | - | 730 W/m² | - |
| 1777735827 | 8.89° C | 51% | 1049.1 hPa | 0 mm | - | 548 W/m² | - |
| 1777734924 | 8.89° C | 51% | 1049.1 hPa | 0 mm | - | 672 W/m² | - |
| 1777734021 | 8.33° C | 49% | 1049 hPa | 0 mm | - | 475 W/m² | - |
| 1777733117 | 8.33° C | 48% | 1049 hPa | 0 mm | - | 575 W/m² | - |
* Rain latest hour (hover to see other rain measurements)
** Current wind speed in m/s (hover to see current wind gust speed)